| time (UTC) | temp F | wind direction | speed MPH | gust MPH | rain 1hr in | rain 24hr in | rain mn in | humidity % | barometer mb |
| 20260506120058 | 45 | 6 | 0.0 | 2.0 | 0.00 | 1.20 | 0.25 | 95 | 1008.1 |
| 20260506114559 | 45 | 0 | 0.0 | 0.0 | 0.00 | 1.20 | 0.25 | 95 | 1008.2 |
| 20260506113055 | 45 | 0 | 0.0 | 0.0 | 0.00 | 1.20 | 0.25 | 95 | 1007.9 |
| 20260506111554 | 45 | 0 | 0.0 | 1.0 | 0.00 | 1.20 | 0.25 | 95 | 1007.6 |
| 20260506110057 | 45 | 0 | 0.0 | 2.0 | 0.00 | 1.20 | 0.25 | 95 | 1007.1 |
| 20260506104600 | 45 | 345 | 0.0 | 1.0 | 0.00 | 1.20 | 0.25 | 95 | 1006.8 |
| 20260506103057 | 45 | 300 | 0.0 | 4.0 | 0.00 | 1.20 | 0.25 | 95 | 1007.3 |
| 20260506101556 | 44 | 2 | 1.0 | 2.0 | 0.01 | 1.20 | 0.25 | 95 | 1007.0 |
| 20260506100058 | 44 | 0 | 0.0 | 0.0 | 0.02 | 1.20 | 0.25 | 95 | 1006.2 |
| 20260506094556 | 44 | 177 | 0.0 | 2.0 | 0.02 | 1.20 | 0.25 | 94 | 1006.3 |
| 20260506093056 | 45 | 5 | 2.0 | 6.0 | 0.03 | 1.20 | 0.25 | 94 | 1007.4 |
| 20260506091600 | 45 | 19 | 2.0 | 4.0 | 0.03 | 1.19 | 0.24 | 95 | 1007.7 |
| 20260506090101 | 46 | 0 | 2.0 | 5.0 | 0.05 | 1.17 | 0.23 | 95 | 1007.0 |
| 20260506084558 | 46 | 333 | 1.0 | 3.0 | 0.07 | 1.17 | 0.23 | 95 | 1006.7 |
| 20260506083059 | 46 | 358 | 0.0 | 4.0 | 0.07 | 1.16 | 0.22 | 95 | 1006.5 |
| 20260506081600 | 45 | 0 | 0.0 | 1.0 | 0.07 | 1.16 | 0.21 | 95 | 1006.9 |
| 20260506080108 | 45 | 0 | 0.0 | 3.0 | 0.06 | 1.13 | 0.18 | 95 | 1007.1 |
| 20260506073058 | 45 | 338 | 0.0 | 3.0 | 0.04 | 1.10 | 0.15 | 95 | 1006.8 |
| 20260506071606 | 46 | 0 | 1.0 | 2.0 | 0.03 | 1.09 | 0.14 | 95 | 1006.5 |
| 20260506061554 | 46 | 0 | 0.0 | 1.0 | 0.05 | 1.05 | 0.11 | 94 | 1006.9 |
| 20260506050107 | 46 | 0 | 0.0 | 1.0 | 0.04 | 1.00 | 0.05 | 94 | 1007.2 |
| 20260506044558 | 46 | 0 | 0.0 | 2.0 | 0.04 | 0.98 | 0.03 | 94 | 1007.3 |
| 20260506043100 | 47 | 0 | 0.0 | 2.0 | 0.06 | 0.98 | 0.03 | 94 | 1007.5 |
| 20260506041600 | 47 | 0 | 0.0 | 3.0 | 0.06 | 0.97 | 0.02 | 94 | 1007.7 |
| 20260506040055 | 48 | 0 | 1.0 | 4.0 | 0.08 | 0.96 | 0.01 | 94 | 1007.8 |
| 20260506034610 | 48 | 0 | 0.0 | 2.0 | 0.10 | 0.94 | 0.94 | 94 | 1008.1 |
| 20260506033054 | 48 | 347 | 1.0 | 3.0 | 0.12 | 0.92 | 0.92 | 94 | 1008.1 |
| 20260506031556 | 49 | 0 | 0.0 | 1.0 | 0.15 | 0.91 | 0.91 | 94 | 1008.0 |
| 20260506030056 | 49 | 0 | 0.0 | 2.0 | 0.15 | 0.88 | 0.88 | 94 | 1008.2 |
| 20260506024612 | 48 | 0 | 0.0 | 2.0 | 0.15 | 0.84 | 0.84 | 94 | 1008.2 |
| 20260506023055 | 49 | 41 | 0.0 | 1.0 | 0.13 | 0.80 | 0.80 | 94 | 1007.7 |
| 20260506021554 | 49 | 0 | 0.0 | 2.0 | 0.11 | 0.76 | 0.76 | 93 | 1007.6 |
| 20260506020054 | 49 | 0 | 0.0 | 0.0 | 0.09 | 0.73 | 0.73 | 93 | 1007.3 |
| 20260506014553 | 49 | 0 | 0.0 | 1.0 | 0.06 | 0.69 | 0.69 | 93 | 1007.3 |
| 20260506013109 | 49 | 352 | 0.0 | 1.0 | 0.06 | 0.67 | 0.67 | 93 | 1007.4 |
| 20260506011608 | 49 | 0 | 0.0 | 2.0 | 0.08 | 0.65 | 0.65 | 93 | 1007.3 |
| 20260506010057 | 49 | 332 | 0.0 | 4.0 | 0.09 | 0.64 | 0.64 | 93 | 1007.2 |
| 20260506004555 | 49 | 296 | 2.0 | 4.0 | 0.08 | 0.63 | 0.63 | 93 | 1007.0 |
| 20260506003058 | 49 | 304 | 0.0 | 1.0 | 0.06 | 0.61 | 0.61 | 93 | 1007.0 |
| 20260506001554 | 49 | 63 | 0.0 | 2.0 | 0.03 | 0.57 | 0.57 | 93 | 1006.9 |
| 20260506000101 | 49 | 0 | 0.0 | 1.0 | 0.03 | 0.55 | 0.55 | 93 | 1006.9 |
| 20260505234557 | 49 | 70 | 0.0 | 3.0 | 0.09 | 0.55 | 0.55 | 93 | 1006.8 |
| 20260505233057 | 49 | 102 | 0.0 | 3.0 | 0.15 | 0.55 | 0.55 | 93 | 1006.8 |
| 20260505231555 | 49 | 0 | 1.0 | 4.0 | 0.16 | 0.54 | 0.54 | 93 | 1007.4 |
| 20260505230104 | 50 | 69 | 2.0 | 4.0 | 0.17 | 0.52 | 0.52 | 92 | 1007.3 |
| 20260505224557 | 50 | 352 | 2.0 | 7.0 | 0.14 | 0.46 | 0.46 | 92 | 1007.5 |
| 20260505223110 | 51 | 332 | 2.0 | 6.0 | 0.12 | 0.40 | 0.40 | 92 | 1007.0 |
| 20260505221557 | 52 | 90 | 1.0 | 3.0 | 0.13 | 0.38 | 0.38 | 92 | 1006.9 |
| 20260505220112 | 52 | 0 | 0.0 | 4.0 | 0.15 | 0.35 | 0.35 | 92 | 1006.9 |
| 20260505214557 | 53 | 324 | 0.0 | 3.0 | 0.20 | 0.35 | 0.32 | 91 | 1006.7 |
| 20260505213100 | 54 | 61 | 0.0 | 6.0 | 0.18 | 0.30 | 0.27 | 90 | 1006.8 |
| 20260505211558 | 57 | 330 | 1.0 | 4.0 | 0.18 | 0.28 | 0.25 | 92 | 1006.7 |
| 20260505210056 | 57 | 0 | 0.0 | 4.0 | 0.17 | 0.23 | 0.20 | 91 | 1006.7 |
| 20260505204608 | 58 | 0 | 0.0 | 3.0 | 0.09 | 0.15 | 0.12 | 91 | 1006.6 |
| 20260505203118 | 58 | 321 | 0.0 | 1.0 | 0.08 | 0.12 | 0.09 | 91 | 1006.5 |
| 20260505201557 | 58 | 317 | 0.0 | 4.0 | 0.07 | 0.10 | 0.07 | 90 | 1006.6 |
| 20260505194613 | 59 | 325 | 1.0 | 6.0 | 0.03 | 0.06 | 0.03 | 87 | 1006.8 |
| 20260505193109 | 60 | 302 | 2.0 | 9.0 | 0.01 | 0.04 | 0.01 | 84 | 1006.7 |
| 20260505191606 | 62 | 268 | 2.0 | 5.0 | 0.00 | 0.03 | 0.00 | 79 | 1006.6 |
| 20260505190057 | 63 | 259 | 1.0 | 6.0 | 0.00 | 0.03 | 0.00 | 76 | 1006.6 |
| 20260505184556 | 64 | 338 | 2.0 | 8.0 | 0.00 | 0.03 | 0.00 | 74 | 1006.6 |
| 20260505183101 | 64 | 153 | 1.0 | 8.0 | 0.00 | 0.03 | 0.00 | 73 | 1006.7 |
| 20260505181557 | 65 | 242 | 3.0 | 9.0 | 0.00 | 0.03 | 0.00 | 72 | 1006.7 |
| 20260505174558 | 65 | 282 | 3.0 | 15.0 | 0.00 | 0.03 | 0.00 | 71 | 1006.5 |
| 20260505173056 | 65 | 232 | 3.0 | 9.0 | 0.00 | 0.03 | 0.00 | 70 | 1006.5 |
| 20260505171556 | 66 | 254 | 2.0 | 9.0 | 0.00 | 0.03 | 0.00 | 69 | 1006.3 |
| 20260505170055 | 65 | 311 | 5.0 | 13.0 | 0.00 | 0.03 | 0.00 | 68 | 1006.4 |
| 20260505164603 | 66 | 274 | 2.0 | 6.0 | 0.00 | 0.03 | 0.00 | 68 | 1006.4 |
| 20260505163100 | 66 | 150 | 4.0 | 17.0 | 0.00 | 0.03 | 0.00 | 67 | 1006.3 |
| 20260505161557 | 68 | 276 | 2.0 | 13.0 | 0.00 | 0.03 | 0.00 | 65 | 1006.2 |
| 20260505153109 | 69 | 233 | 3.0 | 11.0 | 0.00 | 0.03 | 0.00 | 64 | 1005.3 |
| 20260505151601 | 68 | 166 | 2.0 | 14.0 | 0.00 | 0.03 | 0.00 | 66 | 1004.9 |
| 20260505140105 | 66 | 207 | 3.0 | 9.0 | 0.00 | 0.03 | 0.00 | 71 | 1004.9 |
| 20260505130110 | 62 | 155 | 3.0 | 9.0 | 0.00 | 0.03 | 0.00 | 76 | 1005.2 |
| 20260505124608 | 62 | 255 | 2.0 | 11.0 | 0.00 | 0.03 | 0.00 | 75 | 1005.1 |
| 20260505123117 | 62 | 262 | 1.0 | 8.0 | 0.00 | 0.03 | 0.00 | 75 | 1005.1 |
| 20260505121556 | 61 | 231 | 1.0 | 8.0 | 0.00 | 0.03 | 0.00 | 75 | 1004.8 |